User: anonymous   Login
Location: Unspecified
(0.0000°N, 0.0000°E)
Time: 18:24:43
(UTC+00:00)
Language:

O/OREOS (USA 219) - Orbit

View from above orbital plane
View from above orbital plane
View from above satellite
View from above satellite

Ground track
Ground track

The orbit is defined by the following mean orbital elements,

1 37224U          26145.35867941 +.00000000 +00000-0 +18073-3 0 00004
2 37224  71.9680 132.0447 0012521 113.2479 247.0011 14.93628546    03
Epoch (UTC): 25 May 2026 08:36:29
Eccentricity: 0.0012521
inclination: 71.9680°
perigee height: 578 km
apogee height: 595 km
right ascension of ascending node: 132.0447°
argument of perigee: 113.2479°
revolutions per day: 14.93628546
mean anomaly at epoch: 247.0011°

The dashed part of the orbit path shows where the satellite is in the earth's shadow,  

DLR